Provo, UT

3:02 AM MDT on July 24, 2017 (GMT -0600)
Provo Municipal

Weather History for KPVU - April, 2012

Change the Weather History Date:

Wednesday, April 25, 2012

  Actual Average Record
Temperature  
Mean Temperature 65 °F -  
Max Temperature 75 °F 60 °F 84 °F (2014)
Min Temperature 55 °F 38 °F 28 °F (1984)
Growing Degree Days 15 (Base 50)    
Moisture  
Dew Point 40 °F    
Average Humidity 42    
Maximum Humidity 55    
Minimum Humidity 24    
Precipitation  
Precipitation 0.00 in - - ()
Sea Level Pressure  
Sea Level Pressure 30.00 in    
Wind  
Wind Speed 7 mph (South)    
Max Wind Speed 21 mph    
Max Gust Speed 26 mph    
Visibility 12 miles    
Events      
Averages and records for this station are not official NWS values.
T = Trace of Precipitation, MM = Missing Value Source: NWS Daily Summary

Daily Weather History Graph

Daily Weather History Graph

Search for Another Location

Airport or City:

Trip Planner

Search our weather history database for the weather conditions in past years. The results will help you decide how hot, cold, wet, or windy it might be!

Date:

Astronomy

Apr. 25, 2012 Rise Set
Actual Time 6:33 AM MDT 8:16 PM MDT
Civil Twilight 6:04 AM MDT 8:45 PM MDT
Nautical Twilight 5:29 AM MDT 9:20 PM MDT
Astronomical Twilight 4:52 AM MDT 9:58 PM MDT
Moon 9:21 AM MDT (4/25) No Moon Set
Length of Visible Light 14h 40m
Length of Day
13h 42m
Waxing Crescent, 17% of the Moon is Illuminated
Apr 25
Waxing Crescent
Apr 29
First Quarter
May 5
Full
May 12
Last Quarter
May 20
New

Hourly Weather History & Observations

Time (MDT) Temp. Dew Point Humidity Pressure Visibility Wind Dir Wind Speed Gust Speed Precip Events Conditions
12:35 AM 66.2 °F 28.4 °F 24% 29.96 in 10.0 mi Calm Calm - N/A   Clear
1:15 AM 66.2 °F 30.2 °F 26% 29.96 in 10.0 mi SSW 8.1 mph - N/A   Clear
2:15 AM 68.0 °F 32.0 °F 26% 29.99 in 10.0 mi SW 9.2 mph - N/A   Clear
2:35 AM 66.2 °F 33.8 °F 30% 29.99 in 10.0 mi SW 10.4 mph - N/A   Clear
3:15 AM 64.4 °F 41.0 °F 42% 29.99 in 10.0 mi West 6.9 mph - N/A   Clear
4:35 AM 62.6 °F 41.0 °F 45% 30.02 in 10.0 mi North 3.5 mph - N/A   Clear
4:55 AM 57.2 °F 41.0 °F 55% 30.01 in 10.0 mi East 5.8 mph - N/A   Clear
5:35 AM 57.2 °F 37.4 °F 48% 30.01 in 10.0 mi SE 3.5 mph - N/A   Clear
5:55 AM 55.4 °F 39.2 °F 54% 30.02 in 10.0 mi ESE 3.5 mph - N/A   Clear
6:35 AM 55.4 °F 39.2 °F 54% 30.02 in 10.0 mi Calm Calm - N/A   Clear
6:50 AM 57.2 °F 37.4 °F 48% 30.03 in 15.0 mi Variable 5.8 mph - N/A   Overcast
8:50 AM 60.8 °F 37.4 °F 42% 30.06 in 15.0 mi Variable 5.8 mph - N/A   Overcast
9:50 AM 60.8 °F 39.2 °F 45% 30.07 in 15.0 mi SE 9.2 mph - N/A   Overcast
10:50 AM - - N/A% 30.03 in 15.0 mi SE 11.5 mph - N/A   Overcast
1:47 PM 69.8 °F 44.6 °F 40% 30.03 in 15.0 mi Variable 4.6 mph - N/A   Overcast
2:52 PM 71.6 °F 42.8 °F 35% 30.01 in 15.0 mi West 8.1 mph - N/A   Overcast
3:53 PM 71.6 °F 42.8 °F 35% 29.99 in 15.0 mi West 5.8 mph - N/A   Overcast
4:47 PM 75.2 °F 37.4 °F 25% 29.97 in 15.0 mi ESE 4.6 mph - N/A   Overcast
5:47 PM 73.4 °F 42.8 °F 33% 29.96 in 15.0 mi SSW 9.2 mph - N/A   Overcast
6:51 PM 69.8 °F 44.6 °F 40% 29.96 in 15.0 mi SSW 10.4 mph 20.7 mph N/A   Overcast
7:51 PM 66.2 °F 46.4 °F 49% 29.95 in 15.0 mi SSW 13.8 mph - N/A   Scattered Clouds
8:50 PM 64.4 °F 44.6 °F 49% 29.97 in 15.0 mi South 6.9 mph - N/A   Scattered Clouds
9:35 PM 64.4 °F 44.6 °F 49% 29.98 in 10.0 mi SSW 17.3 mph - N/A   Clear
9:55 PM 64.4 °F 44.6 °F 49% 29.98 in 10.0 mi South 20.7 mph 26.5 mph N/A   Clear
10:15 PM 64.4 °F 42.8 °F 45% 29.99 in 10.0 mi South 19.6 mph - N/A   Partly Cloudy
10:35 PM 62.6 °F 42.8 °F 48% 30.00 in 10.0 mi South 8.1 mph - N/A   Mostly Cloudy
11:15 PM 62.6 °F 42.8 °F 48% 29.97 in 10.0 mi South 12.7 mph - N/A   Clear
11:35 PM 60.8 °F 41.0 °F 48% 29.97 in 10.0 mi SE 10.4 mph - N/A   Clear